Regional Weather Roundup
Issued by NWS

Home | Current Version | Previous Version | Text Only | Print | Product List | Glossary Off
Versions: 1 2 3 4 5 6 7 8 9 10 11 12 13 14 15 16 17 18 19 20 21 22 23 24 25 26 27

000
ASUS45 KBOU 241307
RWRCO

WEATHER ROUNDUP FOR COLORADO
NATIONAL WEATHER SERVICE DENVER/BOULDER CO
700 AM MDT SUN JUL 24 2016

NOTE: "FAIR" INDICATES FEW OR NO CLOUDS BELOW 12000 FEET WITH NO
SIGNIFICANT WEATHER AND/OR OBSTRUCTIONS TO VISIBILITY.

COZ001>005-013-030-031-241400-
...NORTHWEST COLORADO...

CITY           SKY/WX    TMP DP  RH WIND       PRES   REMARKS
CRAIG          FAIR      53  43  68 SE3       30.25R
HAYDEN         FAIR      59  39  47 SE8       30.27S
MEEKER         FAIR      57  44  62 VRB5      30.25R
MOUNT WERNER   NOT AVBL
STEAMBOAT SPGS FAIR      55  40  58 NE3       30.30R
WALDEN         FAIR      50  36  57 SE3       30.40R
$$

COZ006>008-011-241400-
...WEST CENTRAL VALLEYS...

CITY           SKY/WX    TMP DP  RH WIND       PRES   REMARKS
GRAND JUNCTION FAIR      71  45  39 E10       30.12R
MONTROSE       FAIR      68  43  40 E10       30.24R
EAGLE          MOCLDY    63  43  48 E16       30.30F
RIFLE          FAIR      67  45  45 NE6       30.20R
DELTA          FAIR      71  44  37 NE9       30.19S
NUCLA          NOT AVBL
$$

COZ017>023-064>068-241400-
...SOUTHWEST COLORADO...

CITY           SKY/WX    TMP DP  RH WIND       PRES   REMARKS
DURANGO        FAIR      57  44  62 CALM      30.27R
CORTEZ         FAIR      64  45  49 W6        30.19S
PAGOSA SPRINGS FAIR      60  42  51 CALM      30.36S
TELLURIDE      FAIR      56  41  56 SE3       30.51S
WOLF CREEK PAS FAIR      52  37  58 S9        30.69S
$$

COZ009-010-012-014-032>034-037-058>063-241400-
...CENTRAL COLORADO...

CITY           SKY/WX    TMP DP  RH WIND       PRES   REMARKS
ASPEN          FAIR      55  47  74 S5        30.43R
BUENA VISTA    FAIR      56  42  60 CALM      30.42S
COPPER MTN     CLOUDY    54  32  43 NW14G20   30.71R
BERTHOUD PASS  FAIR      45  32  61 W7        30.71S
COTTONWOOD PAS FAIR      59  39  47 CALM      30.54S
GUNNISON       FAIR      52  39  62 NW3       30.44R
KREMMLING      FAIR      52  46  82 CALM      30.39S
LEADVILLE      CLOUDY    45  40  82 CALM      30.58R
MONARCH PASS   FAIR      50  36  57 MISG      30.79S
SALIDA         FAIR      58  47  67 W5        30.46S
SUNLIGHT       FAIR      54  36  50 E3        30.61S
WILKERSON PASS FAIR      52  36  54 NW6       30.67R
$$

COZ069>075-241400-
...SAN LUIS VALLEY/SANGRE DE CRISTO MOUNTAINS...

CITY           SKY/WX    TMP DP  RH WIND       PRES   REMARKS
ALAMOSA        FAIR      60  48  64 E5        30.35R
LA VETA PASS   FAIR      55  41  58 CALM      30.54S
SAGUACHE       FAIR      57  41  54 NW10      30.39S
$$

COZ035-036-038>040-241400-
...NORTHERN COLORADO FRONT RANGE...

CITY           SKY/WX    TMP DP  RH WIND       PRES   REMARKS
DENVER INTL AP PTSUNNY   64  52  64 E6        30.16F
DMNS CITY PARK   N/A     66  51  59 S7        30.15F
AURORA         PTSUNNY   67  51  56 SW6       30.19F
FRONT RANGE AP PTSUNNY   68  54  60 SW7       30.19
ERIE MUNI ARPT FAIR      66  52  59 S3        30.14F
BOULDER MUN AP FAIR      66  50  55 W3        30.15F
CENTENNIAL     PTSUNNY   68  47  46 S7        30.20F
BROOMFIELD     MOSUNNY   63  48  59 CALM      30.18F
LONGMONT       FAIR      65  54  67 N7        30.16R
$$

COZ041-046-047-076>085-087-088-241400-
...PIKES PEAK/PALMER DIVIDE AND SOUTHERN FOOTHILLS...

CITY           SKY/WX    TMP DP  RH WIND       PRES   REMARKS
COLO. SPRINGS  PTSUNNY   67  53  61 N7        30.26F
A. F. ACADEMY  FAIR      59  50  71 N7        30.27F
SCHRIEVER AFB  NOT AVBL
ELLICOTT       FAIR     N/A N/A N/A NE3       30.24R
FALCON         NOT AVBL
FORT CARSON    FAIR      67  51  56 N6        30.22S
LIMON          FAIR      64  54  69 NW3       30.20R
MONUMENT HILL  FAIR      61  50  67 S6        30.31F
TRINIDAD       NOT AVBL
$$

COZ042>045-048>051-090-091-241400-
...NORTHEAST COLORADO...

CITY           SKY/WX    TMP DP  RH WIND       PRES   REMARKS
GREELEY ARPT   FAIR      63  55  77 E8        30.12F
AKRON          FAIR      67  57  70 N3        30.16R
BURLINGTON     FAIR      72  62  71 NE5       30.11R
WRAY           NOT AVBL
STERLING       FAIR      63  59  88 CALM      30.12R
HOLYOKE        FAIR      68  59  73 W5        30.12R
FORT MORGAN    FAIR      64  55  72 CALM      30.16R
$$

COZ086-089-092>099-241400-
...SOUTHEAST COLORADO...

CITY           SKY/WX    TMP DP  RH WIND       PRES   REMARKS
PUEBLO         FAIR      70  54  56 NW9       30.15R
LA JUNTA       FAIR      69  63  81 NW3       30.11S
LAMAR          FAIR      69  66  90 W5        30.07R
SPRINGFIELD      N/A     70  58  65 NW8       30.11R
$$




USA.gov is the U.S. government's official web portal to all federal, state and local government web resources and services.